Es ist keine erhöhte Aufmerksamkeit aufgrund des Wetters notwendig.    Es gibt keine Warnungen.
Webcam Vorhersage DWD Regenradar Wetterlage NRW Blitze Wind GFS-Modell
webcam


Kleve - Düffelward SSO more information Kleve - Düffelward SSO


Goch more information Goch


Weitere Templates dieser Seite und andere Webseiten:

Meteotemplate

Awekas - Template

weather34 - Template

Wetter aus Willich

Hubert Reyers' Wetter


te
World Weather Websites
Bo-Rox Wetter Topsites List
Stat Counter
 

METAR-Meldungen aus der Umgebung

   
EHDL - Nijmegen
Aktualisierung: 07-06-2020 10:55
Regenschauer, Regen, Stark bewölkt  
Regenschauer, Regen, Stark bewölkt  
   Wind: WSW 22.2 km/h<br />Gust to 22.2 km/h
Wind: WSW 22.2 km/h
Gust to 22.2 km/h
Temperatur: 11°C
Taupunkt: 9°C
Luftfeuchte: 88%
Luftdruck: 1005 hPa
Bewölkt: Stark bewölkt
Sichtbarkeit: 9 km
Bewölkung: leicht bewölkt 396.2 m,
Stark bewölkt 457.2 m,
Stark bewölkt 579.1 m
EHDL 070855Z AUTO 24012G22KT 180V290 9000 SHRA FEW013 BKN015CB BKN019 11/09 Q1005 WHT
EHDL - Arnhem
Aktualisierung: 07-06-2020 10:55
Regenschauer, Regen, Stark bewölkt  
Regenschauer, Regen, Stark bewölkt  
   Wind: WSW 22.2 km/h<br />Gust to 22.2 km/h
Wind: WSW 22.2 km/h
Gust to 22.2 km/h
Temperatur: 11°C
Taupunkt: 9°C
Luftfeuchte: 88%
Luftdruck: 1005 hPa
Bewölkt: Stark bewölkt
Sichtbarkeit: 9 km
Bewölkung: leicht bewölkt 396.2 m,
Stark bewölkt 457.2 m,
Stark bewölkt 579.1 m
EHDL 070855Z AUTO 24012G22KT 180V290 9000 SHRA FEW013 BKN015CB BKN019 11/09 Q1005 WHT
EHAM - Amsterdam
Aktualisierung: 07-06-2020 10:55
Teilweise bewölkt  
Teilweise bewölkt  
   Wind: Westen 29.6 km/h
Wind: Westen 29.6 km/h
Temperatur: 15°C
Taupunkt: 8°C
Luftfeuchte: 63%
Luftdruck: 1004 hPa
Bewölkt: Teilweise bewölkt
Sichtbarkeit: More than 10 km
Bewölkung: Teilweise bewölkt 731.5 m
EHAM 070855Z 28016KT 240V310 9999 SCT024 15/08 Q1004 NOSIG
EHDL - Ede
Aktualisierung: 07-06-2020 10:55
Regenschauer, Regen, Stark bewölkt  
Regenschauer, Regen, Stark bewölkt  
   Wind: WSW 22.2 km/h<br />Gust to 22.2 km/h
Wind: WSW 22.2 km/h
Gust to 22.2 km/h
Temperatur: 11°C
Taupunkt: 9°C
Luftfeuchte: 88%
Luftdruck: 1005 hPa
Bewölkt: Stark bewölkt
Sichtbarkeit: 9 km
Bewölkung: leicht bewölkt 396.2 m,
Stark bewölkt 457.2 m,
Stark bewölkt 579.1 m
EHDL 070855Z AUTO 24012G22KT 180V290 9000 SHRA FEW013 BKN015CB BKN019 11/09 Q1005 WHT
EHDL - Emmen
Aktualisierung: 07-06-2020 10:55
Regenschauer, Regen, Stark bewölkt  
Regenschauer, Regen, Stark bewölkt  
   Wind: WSW 22.2 km/h<br />Gust to 22.2 km/h
Wind: WSW 22.2 km/h
Gust to 22.2 km/h
Temperatur: 11°C
Taupunkt: 9°C
Luftfeuchte: 88%
Luftdruck: 1005 hPa
Bewölkt: Stark bewölkt
Sichtbarkeit: 9 km
Bewölkung: leicht bewölkt 396.2 m,
Stark bewölkt 457.2 m,
Stark bewölkt 579.1 m
EHDL 070855Z AUTO 24012G22KT 180V290 9000 SHRA FEW013 BKN015CB BKN019 11/09 Q1005 WHT
EHAM - Den Haag
Aktualisierung: 07-06-2020 10:55
Teilweise bewölkt  
Teilweise bewölkt  
   Wind: Westen 29.6 km/h
Wind: Westen 29.6 km/h
Temperatur: 15°C
Taupunkt: 8°C
Luftfeuchte: 63%
Luftdruck: 1004 hPa
Bewölkt: Teilweise bewölkt
Sichtbarkeit: More than 10 km
Bewölkung: Teilweise bewölkt 731.5 m
EHAM 070855Z 28016KT 240V310 9999 SCT024 15/08 Q1004 NOSIG
EHAM - Apeldoorn
Aktualisierung: 07-06-2020 10:55
Teilweise bewölkt  
Teilweise bewölkt  
   Wind: Westen 29.6 km/h
Wind: Westen 29.6 km/h
Temperatur: 15°C
Taupunkt: 8°C
Luftfeuchte: 63%
Luftdruck: 1004 hPa
Bewölkt: Teilweise bewölkt
Sichtbarkeit: More than 10 km
Bewölkung: Teilweise bewölkt 731.5 m
EHAM 070855Z 28016KT 240V310 9999 SCT024 15/08 Q1004 NOSIG
EHAM - Leeuwarden
Aktualisierung: 07-06-2020 10:55
Teilweise bewölkt  
Teilweise bewölkt  
   Wind: Westen 29.6 km/h
Wind: Westen 29.6 km/h
Temperatur: 15°C
Taupunkt: 8°C
Luftfeuchte: 63%
Luftdruck: 1004 hPa
Bewölkt: Teilweise bewölkt
Sichtbarkeit: More than 10 km
Bewölkung: Teilweise bewölkt 731.5 m
EHAM 070855Z 28016KT 240V310 9999 SCT024 15/08 Q1004 NOSIG
TNCC - Willemstad
Aktualisierung: 07-06-2020 10:00
Stark bewölkt  
Stark bewölkt  
   Wind: OSO 20.4 km/h
Wind: OSO 20.4 km/h
Temperatur: 27°C
Hitzeindex: 30°C
Taupunkt: 24°C
Luftfeuchte: 84%
Luftdruck: 1014 hPa
Bewölkt: Stark bewölkt
Sichtbarkeit: More than 10 km
Bewölkung: Stark bewölkt 426.7 m
TNCC 070800Z 12011KT 9999 BKN014 27/24 Q1014 NOSIG
EHEH - Eindhoven
Aktualisierung: 07-06-2020 10:55
Bewölkt  
Bewölkt  
   Wind: Westen 16.7 km/h
Wind: Westen 16.7 km/h
Temperatur: 14°C
Taupunkt: 7°C
Luftfeuchte: 63%
Luftdruck: 1006 hPa
Bewölkt: Bewölkt
Sichtbarkeit: More than 10 km
Bewölkung: Teilweise bewölkt 762 m,
Stark bewölkt 883.9 m,
Bewölkt 1005.8 m
EHEH 070855Z AUTO 26009KT 200V310 9999 SCT025 BKN029 OVC033 14/07 Q1006 BLU 25011KT 9999 FEW015 SCT020 BKN050
EHAM - Middelburg
Aktualisierung: 07-06-2020 10:55
Teilweise bewölkt  
Teilweise bewölkt  
   Wind: Westen 29.6 km/h
Wind: Westen 29.6 km/h
Temperatur: 15°C
Taupunkt: 8°C
Luftfeuchte: 63%
Luftdruck: 1004 hPa
Bewölkt: Teilweise bewölkt
Sichtbarkeit: More than 10 km
Bewölkung: Teilweise bewölkt 731.5 m
EHAM 070855Z 28016KT 240V310 9999 SCT024 15/08 Q1004 NOSIG
EHAM - Delfzijl
Aktualisierung: 07-06-2020 10:55
Teilweise bewölkt  
Teilweise bewölkt  
   Wind: Westen 29.6 km/h
Wind: Westen 29.6 km/h
Temperatur: 15°C
Taupunkt: 8°C
Luftfeuchte: 63%
Luftdruck: 1004 hPa
Bewölkt: Teilweise bewölkt
Sichtbarkeit: More than 10 km
Bewölkung: Teilweise bewölkt 731.5 m
EHAM 070855Z 28016KT 240V310 9999 SCT024 15/08 Q1004 NOSIG

Script entwickelt von  Saratoga-weather.org Angepasst für das Template von  Weerstation Leuven

Sie finden Wetter-Infos dieser Station auch auf:

UK Metoffice

European Weather Network

WeatherCloud

Weather Underground

AWEKAS

Neuwetter

Wettersektor

Von uns verwendete Ausrüstung:

Wetterstation
Davis Vantage Pro2

Wetterprogramm
Meteobridge

WetterComputer
Computer

Davis Vantage Pro2

Meteobridge

Computer